Location: Pine Mountain Observatory
(43.7910°N, 120.9377°W)
Time: 06:26:34
(UTC-07:00)

Vanguard 2 Rocket - Visible Passes

Search period start: 19 May 2019 00:00
Search period end: 29 May 2019 00:00
Orbit: 556 x 3325 km, 32.9° (Epoch: 18 May)

Date Brightness Start Highest point End Pass type
(mag) Time Alt. Az. Time Alt. Az. Time Alt. Az.
21 May 10.8 04:18:39 10° S 04:27:13 15° SE 04:34:39 10° ESE visible
23 May 10.5 04:27:40 10° S 04:40:56 23° SSE 04:51:39 10° ESE visible
24 May 10.7 03:29:17 10° S 03:40:04 17° SE 03:49:35 10° ESE visible
25 May 10.8 02:34:13 10° SSE 02:39:18 11° SE 02:44:11 10° ESE visible
25 May 10.3 04:38:38 10° SSW 04:54:36 31° SSE 05:07:04 10° E visible
26 May 10.4 03:39:05 10° S 03:53:32 26° SE 04:06:00 10° E visible
27 May 10.6 02:42:31 12° S 02:52:36 19° SE 03:03:41 10° ESE visible
27 May 10.1 04:50:36 10° SW 05:08:15 40° SSE 05:21:50 10° E visible
28 May 10.7 01:45:53 11° SSE 01:51:53 13° SE 01:58:32 10° ESE visible
28 May 10.2 03:51:38 13° SSW 04:07:00 34° SSE 04:21:12 10° E visible
